#Datum;Uhrzeit;WR;Pac;DaySum;Status;WR;Pac;DaySum;Status;Pdc1;Udc;Temp;WR;Pac;DaySum;Status;Pdc1;Udc;Temp;WR;Pac;DaySum;Status;Pdc1;Udc;Temp;WR;Pac;DaySum;Status;Pdc1;Pdc2;Udc1;Udc2;Temp;WR;Pac;DaySum;Status;Pdc1;Pdc2;Udc1;Udc2;Temp;WR;Pac;DaySum;Status;Pdc1;Udc;Temp;WR;Pac;DaySum;Status;Pdc1;Udc;Temp;WR;Pac;DaySum;Status;Pdc1;Udc;Temp
19.10.18;23:55:00;1;401;12366;0;2;0;18841;0;0;0;0;3;0;12143;0;0;0;0;4;0;17151;0;0;0;0;5;0;43486;0;0;0;0;0;0;6;0;33133;0;0;0;0;0;0;7;0;28680;0;0;0;0;8;0;28170;0;0;0;0;9;0;15327;0;0;0;0
19.10.18;23:50:00;1;415;12333;0;2;0;18841;0;0;0;0;3;0;12143;0;0;0;0;4;0;17151;0;0;0;0;5;0;43486;0;0;0;0;0;0;6;0;33133;0;0;0;0;0;0;7;0;28680;0;0;0;0;8;0;28170;0;0;0;0;9;0;15327;0;0;0;0
19.10.18;23:45:00;1;426;12298;0;2;0;18841;0;0;0;0;3;0;12143;0;0;0;0;4;0;17151;0;0;0;0;5;0;43486;0;0;0;0;0;0;6;0;33133;0;0;0;0;0;0;7;0;28680;0;0;0;0;8;0;28170;0;0;0;0;9;0;15327;0;0;0;0
19.10.18;23:40:00;1;417;12263;0;2;0;18841;0;0;0;0;3;0;12143;0;0;0;0;4;0;17151;0;0;0;0;5;0;43486;0;0;0;0;0;0;6;0;33133;0;0;0;0;0;0;7;0;28680;0;0;0;0;8;0;28170;0;0;0;0;9;0;15327;0;0;0;0
19.10.18;23:35:00;1;419;12228;0;2;0;18841;0;0;0;0;3;0;12143;0;0;0;0;4;0;17151;0;0;0;0;5;0;43486;0;0;0;0;0;0;6;0;33133;0;0;0;0;0;0;7;0;28680;0;0;0;0;8;0;28170;0;0;0;0;9;0;15327;0;0;0;0
19.10.18;23:30:00;1;450;12192;0;2;0;18841;0;0;0;0;3;0;12143;0;0;0;0;4;0;17151;0;0;0;0;5;0;43486;0;0;0;0;0;0;6;0;33133;0;0;0;0;0;0;7;0;28680;0;0;0;0;8;0;28170;0;0;0;0;9;0;15327;0;0;0;0
19.10.18;23:25:00;1;473;12154;0;2;0;18841;0;0;0;0;3;0;12143;0;0;0;0;4;0;17151;0;0;0;0;5;0;43486;0;0;0;0;0;0;6;0;33133;0;0;0;0;0;0;7;0;28680;0;0;0;0;8;0;28170;0;0;0;0;9;0;15327;0;0;0;0
19.10.18;23:20:00;1;454;12115;0;2;0;18841;0;0;0;0;3;0;12143;0;0;0;0;4;0;17151;0;0;0;0;5;0;43486;0;0;0;0;0;0;6;0;33133;0;0;0;0;0;0;7;0;28680;0;0;0;0;8;0;28170;0;0;0;0;9;0;15327;0;0;0;0
19.10.18;23:15:00;1;384;12077;0;2;0;18841;0;0;0;0;3;0;12143;0;0;0;0;4;0;17151;0;0;0;0;5;0;43486;0;0;0;0;0;0;6;0;33133;0;0;0;0;0;0;7;0;28680;0;0;0;0;8;0;28170;0;0;0;0;9;0;15327;0;0;0;0
19.10.18;23:10:00;1;398;12044;0;2;0;18841;0;0;0;0;3;0;12143;0;0;0;0;4;0;17151;0;0;0;0;5;0;43486;0;0;0;0;0;0;6;0;33133;0;0;0;0;0;0;7;0;28680;0;0;0;0;8;0;28170;0;0;0;0;9;0;15327;0;0;0;0
19.10.18;23:05:00;1;404;12011;0;2;0;18841;0;0;0;0;3;0;12143;0;0;0;0;4;0;17151;0;0;0;0;5;0;43486;0;0;0;0;0;0;6;0;33133;0;0;0;0;0;0;7;0;28680;0;0;0;0;8;0;28170;0;0;0;0;9;0;15327;0;0;0;0
19.10.18;23:00:00;1;403;11977;0;2;0;18841;0;0;0;0;3;0;12143;0;0;0;0;4;0;17151;0;0;0;0;5;0;43486;0;0;0;0;0;0;6;0;33133;0;0;0;0;0;0;7;0;28680;0;0;0;0;8;0;28170;0;0;0;0;9;0;15327;0;0;0;0
19.10.18;22:55:00;1;403;11944;0;2;0;18841;0;0;0;0;3;0;12143;0;0;0;0;4;0;17151;0;0;0;0;5;0;43486;2;0;0;0;0;0;6;0;33133;2;0;0;0;0;0;7;0;28680;0;0;0;0;8;0;28170;0;0;0;0;9;0;15327;0;0;0;0
19.10.18;22:50:00;1;411;11910;0;2;0;18841;0;0;0;0;3;0;12143;0;0;0;0;4;0;17151;0;0;0;0;5;0;43486;2;0;0;0;0;0;6;0;33133;2;0;0;0;0;0;7;0;28680;0;0;0;0;8;0;28170;0;0;0;0;9;0;15327;0;0;0;0
19.10.18;22:45:00;1;412;11875;0;2;0;18841;0;0;0;0;3;0;12143;0;0;0;0;4;0;17151;0;0;0;0;5;0;43486;2;0;0;0;0;0;6;0;33133;2;0;0;0;0;0;7;0;28680;0;0;0;0;8;0;28170;0;0;0;0;9;0;15327;0;0;0;0
19.10.18;22:40:00;1;406;11841;0;2;0;18841;0;0;0;0;3;0;12143;0;0;0;0;4;0;17151;0;0;0;0;5;0;43486;2;0;0;0;0;0;6;0;33133;2;0;0;0;0;0;7;0;28680;0;0;0;0;8;0;28170;0;0;0;0;9;0;15327;0;0;0;0
19.10.18;22:35:00;1;418;11806;0;2;0;18841;0;0;0;0;3;0;12143;0;0;0;0;4;0;17151;0;0;0;0;5;0;43486;2;0;0;0;0;0;6;0;33133;2;0;0;0;0;0;7;0;28680;0;0;0;0;8;0;28170;0;0;0;0;9;0;15327;0;0;0;0
19.10.18;22:30:00;1;417;11772;0;2;0;18841;0;0;0;0;3;0;12143;0;0;0;0;4;0;17151;0;0;0;0;5;0;43486;2;0;0;0;0;0;6;0;33133;2;0;0;0;0;0;7;0;28680;0;0;0;0;8;0;28170;0;0;0;0;9;0;15327;0;0;0;0
19.10.18;22:25:00;1;392;11737;0;2;0;18841;0;0;0;0;3;0;12143;0;0;0;0;4;0;17151;0;0;0;0;5;0;43486;2;0;0;0;0;0;6;0;33133;2;0;0;0;0;0;7;0;28680;0;0;0;0;8;0;28170;0;0;0;0;9;0;15327;0;0;0;0
19.10.18;22:20:00;1;353;11705;0;2;0;18841;0;0;0;0;3;0;12143;0;0;0;0;4;0;17151;0;0;0;0;5;0;43486;2;0;0;0;0;0;6;0;33133;2;0;0;0;0;0;7;0;28680;0;0;0;0;8;0;28170;0;0;0;0;9;0;15327;0;0;0;0
19.10.18;22:15:00;1;364;11675;0;2;0;18841;0;0;0;0;3;0;12143;0;0;0;0;4;0;17151;0;0;0;0;5;0;43486;2;0;0;0;0;0;6;0;33133;2;0;0;0;0;0;7;0;28680;0;0;0;0;8;0;28170;0;0;0;0;9;0;15327;0;0;0;0
19.10.18;22:10:00;1;367;11645;0;2;0;18841;0;0;0;0;3;0;12143;0;0;0;0;4;0;17151;0;0;0;0;5;0;43486;2;0;0;0;0;0;6;0;33133;2;0;0;0;0;0;7;0;28680;0;0;0;0;8;0;28170;0;0;0;0;9;0;15327;0;0;0;0
19.10.18;22:05:00;1;373;11614;0;2;0;18841;0;0;0;0;3;0;12143;0;0;0;0;4;0;17151;0;0;0;0;5;0;43486;2;0;0;0;0;0;6;0;33133;2;0;0;0;0;0;7;0;28680;0;0;0;0;8;0;28170;0;0;0;0;9;0;15327;0;0;0;0
19.10.18;22:00:00;1;375;11583;0;2;0;18841;0;0;0;0;3;0;12143;0;0;0;0;4;0;17151;0;0;0;0;5;0;43486;2;0;0;0;0;0;6;0;33133;2;0;0;0;0;0;7;0;28680;0;0;0;0;8;0;28170;0;0;0;0;9;0;15327;0;0;0;0
19.10.18;21:55:00;1;391;11551;0;2;0;18841;0;0;0;0;3;0;12143;0;0;0;0;4;0;17151;0;0;0;0;5;0;43486;2;0;0;0;0;0;6;0;33133;2;0;0;0;0;0;7;0;28680;0;0;0;0;8;0;28170;0;0;0;0;9;0;15327;0;0;0;0
19.10.18;21:50:00;1;407;11519;0;2;0;18841;0;0;0;0;3;0;12143;0;0;0;0;4;0;17151;0;0;0;0;5;0;43486;2;0;0;0;0;0;6;0;33133;2;0;0;0;0;0;7;0;28680;0;0;0;0;8;0;28170;0;0;0;0;9;0;15327;0;0;0;0
19.10.18;21:45:00;1;439;11485;0;2;0;18841;0;0;0;0;3;0;12143;0;0;0;0;4;0;17151;0;0;0;0;5;0;43486;2;0;0;0;0;0;6;0;33133;2;0;0;0;0;0;7;0;28680;0;0;0;0;8;0;28170;0;0;0;0;9;0;15327;0;0;0;0
19.10.18;21:40:00;1;496;11448;0;2;0;18841;0;0;0;0;3;0;12143;0;0;0;0;4;0;17151;0;0;0;0;5;0;43486;2;0;0;0;0;0;6;0;33133;2;0;0;0;0;0;7;0;28680;0;0;0;0;8;0;28170;0;0;0;0;9;0;15327;0;0;0;0
19.10.18;21:35:00;1;797;11405;0;2;0;18841;0;0;0;0;3;0;12143;0;0;0;0;4;0;17151;0;0;0;0;5;0;43486;2;0;0;0;0;0;6;0;33133;2;0;0;0;0;0;7;0;28680;0;0;0;0;8;0;28170;0;0;0;0;9;0;15327;0;0;0;0
19.10.18;21:30:00;1;1075;11315;0;2;0;18841;0;0;0;0;3;0;12143;0;0;0;0;4;0;17151;0;0;0;0;5;0;43486;2;0;0;0;0;0;6;0;33133;2;0;0;0;0;0;7;0;28680;0;0;0;0;8;0;28170;0;0;0;0;9;0;15327;0;0;0;0
19.10.18;21:25:00;1;498;11243;0;2;0;18841;0;0;0;0;3;0;12143;0;0;0;0;4;0;17151;0;0;0;0;5;0;43486;2;0;0;0;0;0;6;0;33133;2;0;0;0;0;0;7;0;28680;0;0;0;0;8;0;28170;0;0;0;0;9;0;15327;0;0;0;0
19.10.18;21:20:00;1;489;11197;0;2;0;18841;0;0;0;0;3;0;12143;0;0;0;0;4;0;17151;0;0;0;0;5;0;43486;2;0;0;0;0;0;6;0;33133;2;0;0;0;0;0;7;0;28680;0;0;0;0;8;0;28170;0;0;0;0;9;0;15327;0;0;0;0
19.10.18;21:15:00;1;470;11157;0;2;0;18841;0;0;0;0;3;0;12143;0;0;0;0;4;0;17151;0;0;0;0;5;0;43486;2;0;0;0;0;0;6;0;33133;2;0;0;0;0;0;7;0;28680;0;0;0;0;8;0;28170;0;0;0;0;9;0;15327;0;0;0;0
19.10.18;21:10:00;1;468;11117;0;2;0;18841;0;0;0;0;3;0;12143;0;0;0;0;4;0;17151;0;0;0;0;5;0;43486;2;0;0;0;0;0;6;0;33133;2;0;0;0;0;0;7;0;28680;0;0;0;0;8;0;28170;0;0;0;0;9;0;15327;0;0;0;0
19.10.18;21:05:00;1;518;11078;0;2;0;18841;0;0;0;0;3;0;12143;0;0;0;0;4;0;17151;0;0;0;0;5;0;43486;2;0;0;0;0;0;6;0;33133;2;0;0;0;0;0;7;0;28680;0;0;0;0;8;0;28170;0;0;0;0;9;0;15327;0;0;0;0
19.10.18;21:00:00;1;430;11037;0;2;0;18841;0;0;0;0;3;0;12143;0;0;0;0;4;0;17151;0;0;0;0;5;0;43486;2;0;0;0;0;0;6;0;33133;2;0;0;0;0;0;7;0;28680;0;0;0;0;8;0;28170;0;0;0;0;9;0;15327;0;0;0;0
19.10.18;20:55:00;1;454;11001;0;2;0;18841;0;0;0;0;3;0;12143;0;0;0;0;4;0;17151;0;0;0;0;5;0;43486;2;0;0;0;0;0;6;0;33133;2;0;0;0;0;0;7;0;28680;0;0;0;0;8;0;28170;0;0;0;0;9;0;15327;0;0;0;0
19.10.18;20:50:00;1;468;10962;0;2;0;18841;0;0;0;0;3;0;12143;0;0;0;0;4;0;17151;0;0;0;0;5;0;43486;2;0;0;0;0;0;6;0;33133;2;0;0;0;0;0;7;0;28680;0;0;0;0;8;0;28170;0;0;0;0;9;0;15327;0;0;0;0
19.10.18;20:45:00;1;465;10923;0;2;0;18841;0;0;0;0;3;0;12143;0;0;0;0;4;0;17151;0;0;0;0;5;0;43486;2;0;0;0;0;0;6;0;33133;2;0;0;0;0;0;7;0;28680;0;0;0;0;8;0;28170;0;0;0;0;9;0;15327;0;0;0;0
19.10.18;20:40:00;1;435;10884;0;2;0;18841;0;0;0;0;3;0;12143;0;0;0;0;4;0;17151;0;0;0;0;5;0;43486;2;0;0;0;0;0;6;0;33133;2;0;0;0;0;0;7;0;28680;0;0;0;0;8;0;28170;0;0;0;0;9;0;15327;0;0;0;0
19.10.18;20:35:00;1;432;10848;0;2;0;18841;0;0;0;0;3;0;12143;0;0;0;0;4;0;17151;0;0;0;0;5;0;43486;2;0;0;0;0;0;6;0;33133;2;0;0;0;0;0;7;0;28680;0;0;0;0;8;0;28170;0;0;0;0;9;0;15327;0;0;0;0
19.10.18;20:30:00;1;432;10812;0;2;0;18841;0;0;0;0;3;0;12143;0;0;0;0;4;0;17151;0;0;0;0;5;0;43486;2;0;0;0;0;0;6;0;33133;2;0;0;0;0;0;7;0;28680;0;0;0;0;8;0;28170;0;0;0;0;9;0;15327;0;0;0;0
19.10.18;20:25:00;1;711;10775;0;2;0;18841;0;0;0;0;3;0;12143;0;0;0;0;4;0;17151;0;0;0;0;5;0;43486;2;0;0;0;0;0;6;0;33133;2;0;0;0;0;0;7;0;28680;0;0;0;0;8;0;28170;0;0;0;0;9;0;15327;0;0;0;0
19.10.18;20:20:00;1;624;10716;0;2;0;18841;0;0;0;0;3;0;12143;0;0;0;0;4;0;17151;0;0;0;0;5;0;43486;2;0;0;0;0;0;6;0;33133;2;0;0;0;0;0;7;0;28680;0;0;0;0;8;0;28170;0;0;0;0;9;0;15327;0;0;0;0
19.10.18;20:15:00;1;490;10664;0;2;0;18841;0;0;0;0;3;0;12143;0;0;0;0;4;0;17151;0;0;0;0;5;0;43486;2;0;0;0;0;0;6;0;33133;2;0;0;0;0;0;7;0;28680;0;0;0;0;8;0;28170;0;0;0;0;9;0;15327;0;0;0;0
19.10.18;20:10:00;1;765;10623;0;2;0;18841;0;0;0;0;3;0;12143;0;0;0;0;4;0;17151;0;0;0;0;5;0;43486;2;0;0;0;0;0;6;0;33133;2;0;0;0;0;0;7;0;28680;0;0;0;0;8;0;28170;0;0;0;0;9;0;15327;0;0;0;0
19.10.18;20:05:00;1;883;10560;0;2;0;18841;0;0;0;0;3;0;12143;0;0;0;0;4;0;17151;0;0;0;0;5;0;43486;2;0;0;0;0;0;6;0;33133;2;0;0;0;0;0;7;0;28680;0;0;0;0;8;0;28170;0;0;0;0;9;0;15327;0;0;0;0
19.10.18;20:00:00;1;933;10485;0;2;0;18841;0;0;0;0;3;0;12143;0;0;0;0;4;0;17151;0;0;0;0;5;0;43486;2;0;0;0;0;0;6;0;33133;2;0;0;0;0;0;7;0;28680;0;0;0;0;8;0;28170;0;0;0;0;9;0;15327;0;0;0;0
19.10.18;19:55:00;1;941;10406;0;2;0;18841;0;0;0;0;3;0;12143;0;0;0;0;4;0;17151;0;0;0;0;5;0;43486;2;0;0;0;0;0;6;0;33133;2;0;0;0;0;0;7;0;28680;0;0;0;0;8;0;28170;0;0;0;0;9;0;15327;0;0;0;0
19.10.18;19:50:00;1;893;10328;0;2;0;18841;0;0;0;0;3;0;12143;0;0;0;0;4;0;17151;0;0;0;0;5;0;43486;2;0;0;0;0;0;6;0;33133;2;0;0;0;0;0;7;0;28680;0;0;0;0;8;0;28170;0;0;0;0;9;0;15327;0;0;0;0
19.10.18;19:45:00;1;947;10253;0;2;0;18841;0;0;0;0;3;0;12143;0;0;0;0;4;0;17151;0;0;0;0;5;0;43486;2;0;0;0;0;0;6;0;33133;2;0;0;0;0;0;7;0;28680;0;0;0;0;8;0;28170;0;0;0;0;9;0;15327;0;0;0;0
19.10.18;19:40:00;1;834;10174;0;2;0;18841;0;0;0;0;3;0;12143;0;0;0;0;4;0;17151;0;0;0;0;5;0;43486;2;0;0;0;0;0;6;0;33133;2;0;0;0;0;0;7;0;28680;0;0;0;0;8;0;28170;0;0;0;0;9;0;15327;0;0;0;0
19.10.18;19:35:00;1;920;10104;0;2;0;18841;0;0;0;0;3;0;12143;0;0;0;0;4;0;17151;0;0;0;0;5;0;43486;2;0;0;0;0;0;6;0;33133;2;0;0;0;0;0;7;0;28680;0;0;0;0;8;0;28170;0;0;0;0;9;0;15327;0;0;0;0
19.10.18;19:30:00;1;937;10028;0;2;0;18841;0;0;0;0;3;0;12143;0;0;0;0;4;0;17151;0;0;0;0;5;0;43486;2;0;0;0;0;0;6;0;33133;2;0;0;0;0;0;7;0;28680;0;0;0;0;8;0;28170;0;0;0;0;9;0;15327;0;0;0;0
19.10.18;19:25:00;1;2305;9938;0;2;0;18841;0;0;0;0;3;0;12143;0;0;0;0;4;0;17151;0;0;0;0;5;0;43486;2;0;0;0;0;0;6;0;33133;2;0;0;0;0;0;7;0;28680;0;0;0;0;8;0;28170;0;0;0;0;9;0;15327;0;0;0;0
19.10.18;19:20:00;1;1269;9744;0;2;0;18841;0;0;0;0;3;0;12143;0;0;0;0;4;0;17151;0;0;0;0;5;0;43486;2;0;0;0;0;0;6;0;33133;2;0;0;0;0;0;7;0;28680;0;0;0;0;8;0;28170;0;0;0;0;9;0;15327;0;0;0;0
19.10.18;19:15:00;1;1256;9638;0;2;0;18841;0;0;0;0;3;0;12143;0;0;0;0;4;0;17151;0;0;0;0;5;0;43486;2;0;0;0;0;0;6;0;33133;2;0;0;0;0;0;7;0;28680;0;0;0;0;8;0;28170;0;0;0;0;9;0;15327;0;0;0;0
19.10.18;19:10:00;1;1307;9533;0;2;0;18841;0;0;0;0;3;0;12143;0;0;0;0;4;0;17151;0;0;0;0;5;0;43486;2;0;0;0;0;0;6;0;33133;2;0;0;0;0;0;7;0;28680;0;0;0;0;8;0;28170;0;0;0;0;9;0;15327;0;0;0;0
19.10.18;19:05:00;1;1497;9423;0;2;0;18841;0;0;0;0;3;0;12143;0;0;0;0;4;0;17151;0;0;0;0;5;0;43486;2;0;0;0;0;0;6;0;33133;2;0;0;0;0;0;7;0;28680;0;0;0;0;8;0;28170;0;0;0;0;9;0;15327;0;0;0;0
19.10.18;19:00:00;1;826;9316;0;2;0;18841;0;0;0;0;3;0;12143;0;0;0;0;4;0;17151;0;0;0;0;5;0;43486;2;0;0;0;0;0;6;0;33133;2;0;0;0;0;0;7;0;28680;0;0;0;0;8;0;28170;0;0;0;0;9;0;15327;0;0;0;0
19.10.18;18:55:00;1;1911;9247;0;2;0;18841;0;0;0;0;3;0;12143;0;0;0;0;4;0;17151;0;0;0;0;5;0;43486;2;0;0;0;0;0;6;0;33133;2;0;0;0;0;0;7;0;28680;0;0;0;0;8;0;28170;0;0;0;0;9;0;15327;0;0;0;0
19.10.18;18:50:00;1;2823;9070;0;2;0;18841;0;0;0;0;3;0;12143;0;0;0;0;4;0;17151;0;0;0;0;5;0;43486;2;0;0;0;0;0;6;0;33133;2;0;0;0;0;0;7;0;28680;0;0;0;0;8;0;28170;0;0;0;0;9;0;15327;0;0;0;0
19.10.18;18:45:00;1;1557;8833;0;2;0;18841;0;0;0;0;3;0;12143;0;0;0;0;4;0;17151;0;0;0;0;5;0;43486;2;0;0;0;0;0;6;0;33133;2;0;0;0;0;0;7;0;28680;0;0;0;0;8;0;28170;0;0;0;0;9;0;15327;0;0;0;0
19.10.18;18:40:00;1;852;8714;0;2;0;18841;0;0;0;0;3;0;12143;0;0;0;0;4;0;17151;0;0;0;0;5;0;43486;2;0;0;0;0;0;6;0;33133;2;0;0;0;0;0;7;0;28680;0;0;0;0;8;0;28170;0;0;0;0;9;0;15327;0;0;0;0
19.10.18;18:35:00;1;696;8650;0;2;0;18841;0;0;0;0;3;0;12143;0;0;128;13;4;0;17151;0;0;0;0;5;0;43486;2;0;0;0;0;0;6;0;33133;2;0;0;0;0;0;7;0;28680;0;0;0;0;8;0;28170;0;0;0;0;9;0;15327;0;0;0;0
19.10.18;18:30:00;1;704;8592;0;2;0;18841;2;0;271;24;3;0;12143;6;0;308;26;4;0;17151;0;0;39;14;5;0;43486;2;0;0;0;0;0;6;0;33133;2;0;0;0;0;0;7;0;28680;0;0;0;0;8;0;28170;0;0;0;0;9;0;15327;0;0;0;0
19.10.18;18:25:00;1;726;8533;0;2;0;18841;6;0;306;25;3;0;12143;6;0;367;27;4;0;17151;1;0;94;26;5;0;43486;2;0;0;64;64;11;6;0;33133;2;0;1;43;30;10;7;0;28680;0;0;0;0;8;0;28170;0;0;0;0;9;0;15327;0;0;40;3
19.10.18;18:20:00;1;556;8472;0;2;0;18841;6;0;339;25;3;0;12143;6;1;410;27;4;0;17151;1;0;138;27;5;0;43486;26;0;0;352;352;35;6;0;33133;23;1;7;180;457;33;7;0;28680;6;0;93;9;8;0;28170;6;0;283;27;9;0;15327;6;0;245;19
19.10.18;18:15:00;1;473;8427;0;2;0;18841;6;0;359;26;3;0;12143;6;3;426;28;4;0;17151;1;0;173;27;5;0;43486;23;0;0;390;487;36;6;0;33133;23;0;11;536;180;34;7;0;28680;6;0;342;28;8;0;28170;6;0;345;28;9;0;15327;0;0;72;4
19.10.18;18:10:00;1;686;8382;0;2;0;18841;6;0;374;27;3;1;12143;6;2;454;28;4;0;17151;1;0;200;28;5;6;43486;1;0;0;392;613;36;6;0;33133;23;2;8;182;540;34;7;0;28680;6;0;259;19;8;0;28170;0;0;0;0;9;0;15327;0;0;344;20
19.10.18;18:05:00;1;649;8325;0;2;0;18841;6;0;385;27;3;2;12143;6;5;468;29;4;0;17151;1;0;191;29;5;25;43485;1;0;1;395;626;36;6;0;33133;23;0;9;411;555;35;7;0;28680;0;0;0;0;8;0;28170;6;0;426;29;9;0;15327;6;0;268;15
19.10.18;18:00:00;1;652;8271;0;2;0;18841;6;0;398;28;3;1;12142;6;9;465;29;4;0;17151;3;0;199;29;5;79;43483;4;0;10;374;596;37;6;15;33133;23;3;21;512;454;36;7;1;28680;3;8;193;15;8;0;28170;0;0;76;4;9;0;15327;0;2;313;16
19.10.18;17:55:00;1;648;8217;0;2;42;18841;6;67;364;29;3;0;12142;6;0;528;30;4;14;17151;3;14;198;29;5;115;43476;4;21;29;375;596;38;6;59;33132;4;26;33;431;231;37;7;13;28680;6;26;427;30;8;6;28170;0;11;167;12;9;0;15327;0;0;0;0
19.10.18;17:50:00;1;644;8163;0;2;78;18837;4;111;355;30;3;13;12142;3;26;504;30;4;32;17150;3;33;197;30;5;147;43466;4;37;46;375;596;38;6;78;33127;4;41;49;431;231;37;7;20;28678;0;41;197;15;8;30;28169;4;57;305;25;9;1;15327;0;5;158;8
19.10.18;17:45:00;1;641;8109;0;2;140;18831;4;177;368;31;3;76;12141;4;117;482;31;4;102;17147;3;106;198;30;5;216;43453;4;80;82;375;596;38;6;112;33120;4;49;48;431;231;37;7;15;28676;4;23;78;6;8;93;28166;4;130;401;30;9;6;15326;4;11;417;21
19.10.18;17:40:00;1;1460;8051;0;2;178;18819;4;216;363;32;3;101;12135;4;140;470;32;4;140;17139;5;146;207;30;5;272;43435;4;108;104;375;596;38;6;154;33111;4;79;87;431;303;37;7;96;28669;4;122;276;20;8;31;28158;4;45;138;10;9;23;15325;0;32;161;9
19.10.18;17:35:00;1;2848;7917;0;2;321;18805;4;368;380;33;3;168;12126;4;207;435;32;4;253;17127;5;263;221;31;5;420;43412;4;188;172;377;596;38;6;288;33097;4;113;174;431;510;37;7;348;28657;4;389;441;32;8;0;28139;0;0;0;0;9;61;15322;0;82;291;16
19.10.18;17:30:00;1;520;7693;0;2;419;18778;4;470;382;33;3;234;12112;4;272;399;33;4;322;17106;5;335;229;31;5;527;43376;4;250;217;389;610;39;6;385;33072;4;172;235;500;532;37;7;184;28628;4;202;176;12;8;266;28139;0;301;360;25;9;79;15316;4;101;299;17
19.10.18;17:25:00;1;910;7650;0;2;481;18744;4;533;380;34;3;273;12093;4;313;397;33;4;364;17080;5;379;230;31;5;615;43332;4;288;255;385;610;39;6;467;33039;4;210;264;546;539;37;7;104;28558;0;111;76;5;8;267;28120;4;301;304;21;9;25;15305;4;30;84;4
19.10.18;17:20:00;1;663;7574;0;2;574;18703;4;630;386;35;3;334;12071;4;374;411;34;4;441;17049;5;459;230;32;5;743;43280;4;356;317;394;624;39;6;559;33000;4;262;324;540;536;37;7;473;28546;4;504;297;22;8;91;28060;0;96;66;5;9;0;15279;0;0;0;0
19.10.18;17:15:00;1;486;7521;0;2;661;18656;4;718;376;36;3;394;12043;4;440;408;34;4;510;17013;5;531;231;32;5;865;43217;4;417;367;395;630;39;6;654;32953;4;306;367;559;542;38;7;526;28463;0;564;270;19;8;409;28028;0;442;237;19;9;173;15279;4;198;397;24
19.10.18;17:10:00;1;2015;7480;0;2;776;18601;4;834;358;36;3;445;12010;4;493;415;34;4;582;16970;5;606;237;32;5;1005;43144;4;493;435;396;625;39;6;773;32897;4;364;407;554;537;38;7;984;28418;4;1047;446;33;8;864;27994;4;913;406;33;9;248;15262;4;292;528;30
19.10.18;17:05:00;1;2879;7281;0;2;890;18537;4;954;368;37;3;502;11973;4;553;410;35;4;637;16922;5;664;236;33;5;1161;43059;4;575;496;399;639;40;6;878;32833;4;418;471;552;535;38;7;0;28216;0;0;0;0;8;1019;27923;4;1086;428;34;9;251;15241;4;289;437;31
19.10.18;17:00:00;1;2453;7048;0;2;1053;18462;4;1124;366;38;3;578;11931;4;629;409;35;4;711;16869;5;740;238;33;5;1329;42962;4;668;570;399;634;40;6;1006;32759;4;488;541;556;536;38;7;647;28216;0;684;230;17;8;185;27837;4;197;76;5;9;154;15220;4;172;176;15
19.10.18;16:55:00;1;505;6850;0;2;1147;18375;4;1221;367;39;3;632;11883;4;685;409;35;4;767;16810;5;799;227;33;5;1472;42851;4;744;631;402;640;40;6;1119;32674;4;560;614;561;546;38;7;862;28110;0;915;275;21;8;1108;27728;0;1168;362;27;9;96;15177;0;105;71;6
19.10.18;16:50:00;1;1146;6754;0;2;1254;18280;4;1333;367;39;3;693;11831;4;749;411;36;4;798;16746;5;831;210;33;5;1625;42728;4;837;703;402;636;40;6;1244;32580;4;602;648;562;543;38;7;1571;28036;4;1658;452;35;8;752;27636;4;794;227;17;9;96;15156;0;104;62;5
19.10.18;16:45:00;1;551;6658;0;2;1344;18175;4;1422;362;40;3;745;11773;4;803;415;36;4;827;16679;5;862;206;34;5;1771;42590;4;911;770;404;636;41;6;1359;32475;4;676;735;563;540;38;7;1010;27868;0;1065;278;21;8;952;27509;4;1005;272;21;9;440;15106;0;474;253;20
19.10.18;16:40:00;1;688;6612;0;2;1429;18063;4;1513;369;41;3;809;11711;4;866;412;37;4;841;16611;5;876;200;34;5;1953;42441;4;1008;849;407;641;41;6;1491;32361;4;746;794;561;548;38;7;1860;27764;4;1964;453;35;8;1208;27374;4;1268;302;23;9;425;15061;4;455;223;17
19.10.18;16:35:00;1;2470;6534;0;2;1620;17944;4;1715;379;42;3;903;11643;4;966;408;37;4;873;16540;5;909;203;34;5;2179;42277;4;1146;949;406;646;41;6;1655;32236;4;804;828;563;550;39;7;2062;27609;4;2173;449;36;8;2016;27224;4;2123;456;36;9;210;14944;0;225;98;7
19.10.18;16:30:00;1;570;6348;0;2;1795;17809;4;1898;375;43;3;988;11568;4;1053;404;37;4;932;16468;5;970;217;35;5;2414;42094;4;1269;1059;405;646;41;6;1845;32096;4;933;979;563;543;39;7;2262;27437;4;2375;453;36;8;2213;27055;4;2329;455;36;9;391;14892;0;418;163;12
19.10.18;16:25:00;1;2089;6299;0;2;1938;17660;4;2045;377;43;3;1066;11486;4;1133;404;38;4;978;16390;5;1019;225;35;5;2637;41891;4;1402;1154;407;648;41;6;2017;31941;4;997;1043;563;547;39;7;1953;27250;4;2054;361;29;8;933;26872;4;981;181;14;9;1283;14815;4;1366;502;37
19.10.18;16:20:00;1;3389;6087;0;2;2087;17499;4;2201;377;44;3;1138;11397;4;1208;407;38;4;1032;16309;5;1075;216;35;5;2869;41669;4;1526;1258;406;646;41;6;2196;31772;4;1105;1119;567;541;39;7;1581;27046;4;1663;275;22;8;1556;26610;0;1636;272;22;9;834;14708;4;887;304;22
19.10.18;16:15:00;1;4609;5794;0;2;2189;17324;4;2305;374;44;3;1189;11302;4;1259;407;38;4;1081;16223;5;1126;202;36;5;3043;41429;4;1625;1337;403;652;42;6;2331;31588;4;1163;1182;567;545;39;7;1682;26733;0;1761;272;22;8;1072;26465;4;1127;181;14;9;873;14591;4;927;302;22
19.10.18;16:10:00;1;3845;5409;0;2;2168;17142;4;2286;373;45;3;1173;11204;4;1243;402;39;4;1090;16133;5;1135;207;36;5;3098;41174;4;1653;1363;403;645;42;6;2368;31392;4;1186;1216;565;547;39;7;2731;26601;4;2868;453;37;8;1800;26246;4;1888;299;24;9;0;14348;0;0;0;0
19.10.18;16:05:00;1;2366;5124;0;2;2288;16962;4;2417;378;45;3;1226;11106;4;1301;408;39;4;1107;16042;5;1153;221;36;5;3276;40916;4;1741;1442;403;661;42;6;2502;31195;4;1268;1296;563;548;39;7;2284;26374;4;2399;360;30;8;2251;25958;0;2370;360;29;9;911;14348;4;968;298;22
19.10.18;16:00:00;1;2371;4925;0;2;2341;16772;4;2473;379;45;3;1257;11004;4;1333;404;39;4;1231;15950;5;1282;224;37;5;3456;40641;4;1851;1526;404;648;42;6;2640;30985;4;1317;1348;564;545;39;7;2389;26051;0;2508;353;30;8;1760;25666;0;1851;272;22;9;1270;14220;4;1347;399;30
19.10.18;15:55:00;1;2940;4709;0;2;2421;16576;4;2556;379;46;3;1296;10899;4;1372;405;39;4;1359;15848;5;1415;225;37;5;3587;40354;4;1920;1584;403;650;42;6;2738;30765;4;1374;1389;561;541;39;7;3029;25888;4;3185;449;38;8;2977;25546;4;3125;449;38;9;322;14007;0;343;101;7
19.10.18;15:50:00;1;3231;4465;0;2;2522;16375;4;2653;369;46;3;1359;10791;4;1440;411;40;4;1485;15735;5;1547;229;38;5;3815;40053;4;2060;1689;401;636;42;6;2923;30535;4;1465;1475;561;542;39;7;1900;25634;4;1997;269;22;8;3147;25299;4;3299;445;38;9;336;13907;0;356;99;7
19.10.18;15:45:00;1;1084;4196;0;2;2626;16165;4;2764;372;46;3;1440;10678;4;1523;413;40;4;1598;15612;5;1664;225;38;5;4025;39735;4;2171;1788;402;632;42;6;3090;30292;4;1598;1595;559;540;39;7;2514;25272;0;2639;330;28;8;2458;25038;4;2575;330;28;9;1788;13817;4;1894;491;39
19.10.18;15:40:00;1;295;4073;0;2;2681;15947;4;2820;374;46;3;1466;10559;4;1549;411;40;4;1695;15479;5;1765;231;38;5;4182;39398;4;2260;1859;402;636;42;6;3200;30035;4;1649;1648;560;544;39;7;2309;25091;4;2420;293;25;8;1695;24767;4;1782;221;19;9;1552;13669;4;1643;408;32
19.10.18;15:35:00;1;264;4048;0;2;2688;15725;4;2829;377;46;3;1476;10437;4;1560;405;41;4;1760;15338;5;1833;231;39;5;4243;39050;4;2301;1884;401;633;43;6;3245;29768;4;1634;1640;559;544;39;7;2080;24681;0;2175;265;23;8;2043;24365;0;2145;265;23;9;1863;13511;4;1976;494;40
19.10.18;15:30:00;1;264;4026;0;2;2710;15500;4;2855;376;46;3;1510;10314;4;1595;416;41;4;1828;15191;5;1904;227;39;5;4359;38694;4;2365;1939;399;636;43;6;3329;29496;4;1701;1719;557;543;39;7;2098;24512;4;2200;264;23;8;3447;24194;4;3612;445;39;9;1886;13357;4;1997;492;40
19.10.18;15:25:00;1;265;4004;0;2;2751;15274;4;2896;374;46;3;1573;10188;4;1662;432;41;4;1938;15039;5;2019;225;39;5;4463;38332;4;2418;1986;396;637;43;6;3425;29218;4;1729;1726;558;545;39;7;3521;24224;4;3703;435;39;8;3479;23913;4;3650;437;39;9;1525;13202;4;1616;396;32
19.10.18;15:20:00;1;263;3982;0;2;2727;15045;4;2876;379;46;3;1657;10057;4;1753;462;41;4;1998;14878;5;2081;227;40;5;4522;37959;4;2432;1979;399;636;43;6;3461;28932;4;1752;1746;557;543;39;7;3549;23933;4;3727;435;39;8;3485;23628;4;3662;444;39;9;1917;13044;4;2031;486;40
19.10.18;15:15:00;1;265;3958;0;2;2790;14817;4;2941;376;46;3;1762;9919;4;1864;475;42;4;2090;14712;5;2178;227;40;5;4672;37581;4;2533;2086;397;634;43;6;3568;28644;4;1797;1786;553;541;39;7;2188;23555;0;2297;260;23;8;3598;23331;4;3776;439;39;9;1978;12881;4;2092;496;40
19.10.18;15:10:00;1;282;3936;0;2;2728;14585;4;2875;371;46;3;1767;9773;4;1872;483;41;4;2144;14538;5;2233;227;40;5;4680;37192;4;2545;2087;399;634;43;6;3575;28345;4;1813;1819;555;539;39;7;3036;23329;4;3184;360;32;8;1794;23030;4;1881;216;19;9;0;12550;0;0;0;0
19.10.18;15:05:00;1;324;3912;0;2;2814;14359;4;2967;378;46;3;1822;9626;4;1926;477;41;4;2254;14360;5;2348;226;41;5;4824;36804;4;2611;2159;397;631;43;6;3686;28049;4;1860;1871;556;537;39;7;1234;22979;0;1296;146;13;8;0;22316;0;0;0;0;9;668;12550;4;705;163;13
19.10.18;15:00:00;1;356;3885;0;2;2854;14123;4;3005;371;46;3;1851;9473;4;1956;482;41;4;2348;14172;5;2446;227;41;5;4995;36397;4;2722;2229;398;633;43;6;3816;27738;4;1951;1928;555;536;40;7;1883;22721;4;1975;214;20;8;1865;22316;0;1961;220;20;9;337;12343;0;357;82;6
19.10.18;14:55:00;1;353;3855;0;2;2893;13885;4;3048;376;46;3;1878;9319;4;1984;477;41;4;2386;13976;5;2485;226;41;5;5085;35981;4;2767;2272;396;633;44;6;3883;27420;4;1983;1968;555;536;40;7;1302;22218;0;1368;148;13;8;640;22122;4;671;73;6;9;703;12184;0;743;162;13
19.10.18;14:50:00;1;370;3825;0;2;2922;13643;4;3072;369;46;3;1900;9162;4;2007;479;41;4;2448;13777;5;2550;226;41;5;5231;35555;4;2848;2342;396;631;44;6;3996;27095;4;2040;2025;553;530;40;7;650;22084;4;682;72;6;8;645;21666;0;677;74;6;9;713;11992;0;752;161;14
19.10.18;14:45:00;1;342;3797;0;2;2987;13400;4;3139;369;47;3;1947;9004;4;2054;478;41;4;2526;13574;5;2631;224;41;5;5383;35119;4;2939;2404;397;639;44;6;4107;26762;4;2104;2081;552;533;40;7;0;20955;0;0;0;0;8;1320;21378;0;1383;148;13;9;1080;11857;4;1143;239;21